GXIBA-1

导读

GXIBA-1(NORAD编号67685)是一颗低地球轨道卫星,运行高度约512公里,飞行速度约7.678公里/秒,轨道参数明确,可通过业余无线电观测软件追踪其运行轨迹。作为近地轨道卫星,它处于当前全球卫星星座快速扩张的密集空间环境中,面临着空间碎片碰撞风险与潜在射频链路安全威胁。该卫星的轨道数据已公开,可供卫星观测爱好者进行跟踪观测,其斜距范围约4045公里,信号延迟约13.49毫秒,是业余航天观测领域的可追踪目标之一。

基本信息
目录编号:
67685
目录名称:
GXIBA-1
国际标识:
1998-067YB
轨道中心:
EARTH
卫星名称:
GXIBA-1
卫星全名:
GXIBA-1
卫星状态:
在轨 (已飞行10098 天)
发射日期:
1998-11-20 UTC
国别 :
(MX)
星等 :
--
轨道信息
数据来源 国际轨道数据
星历时间: 2026-07-13T06:16:04+0800
1天前
查看轨道信息
半长轴: 6753.273km
偏心率: 0.0008699
轨道倾角: 51.623°
近地点辐角 319.039°
升交点赤经 163.687°
平近点角 40.995°
近地点: 369.261km
远地点: 381.011km
周期: 92.052分钟
每日圈数: 15.643408
详细信息
使用方式:
暂无
2D轨道图
3D轨道图
轨道高度分析图
轨道倾角分析图
轨道综合分析图
查看轨道综合分析图